#timestamp,LO_Frequency,Hit,StdDev 
1552291215.1,286047001.8,N
1552291235.9,286047002.0,N
1552291255.7,286047002.2,N
1552291275.5,286047002.1,N
1552291295.4,286047002.1,N
1552291315.2,286047002.6,N
1552291335.0,286047001.6,N
1552291336.0,286047001.6,N
1552291355.8,286047002.5,N
1552291375.6,286047001.5,N
1552291395.5,286047001.9,N
1552291415.3,286047002.0,N
1552291435.1,286047000.1,N
1552291455.9,286046999.9,N
1552291475.7,286047002.4,N
1552291495.5,286047000.1,N
1552291515.4,286047002.5,N
1552291535.2,286047004.4,Y
1552291555.1,286047000.2,P
1552291556.0,286047000.2,N
1552291575.8,286046999.8,N
1552291595.6,286047000.9,N
1552291615.5,286047000.0,N
1552291635.3,286047004.3,Y
1552291655.2,286047000.0,P
1552291675.9,286047001.1,P
1552291695.7,286047001.0,N
1552291715.6,286046999.8,N
1552291735.4,286047001.2,N
1552291755.2,286046998.1,Y
1552291775.1,286047000.7,P
1552291776.0,286047000.7,P
1552291795.8,286047000.6,P
1552291815.7,286046998.7,Y
1552291835.5,286046996.7,P
1552291855.3,286046999.6,N
1552291875.2,286046997.4,N
1552291895.0,286046997.3,N
1552291895.9,286046997.3,N
1552291915.7,286046995.4,Y
1552291935.6,286046999.5,P
1552291955.4,286046999.3,N
1552291975.3,286046998.4,N
1552291995.1,286047000.5,N
1552291996.0,286047000.5,N
1552292015.8,286046998.4,N
1552292035.7,286046998.1,N
1552292055.5,286047000.8,N
1552292075.3,286047001.1,N
1552292095.2,286047000.9,N
1552292115.0,286047000.3,N
1552292115.9,286047000.3,N
1552292135.8,286047000.7,N
1552292155.6,286047000.9,N
1552292175.5,286046998.1,N
1552292195.3,286046999.4,N
1552292215.1,286046999.0,N
1552292235.9,286046998.8,N
1552292255.7,286046996.7,Y
1552292275.6,286046996.6,P
1552292295.4,286046997.0,N
1552292315.2,286046999.5,N
1552292335.1,286046998.6,N
1552292336.0,286046998.6,N
1552292355.8,286047000.3,N
1552292375.6,286046999.9,N
1552292395.5,286046999.8,N
1552292415.3,286047002.4,N
1552292435.2,286047000.4,N
1552292455.9,286046999.9,N
1552292475.7,286046999.9,N
1552292495.6,286047002.0,N
1552292515.4,286047001.3,N
1552292535.2,286047003.5,N
1552292555.1,286047005.2,N
1552292556.0,286047005.2,N
1552292575.8,286047005.1,N
1552292595.7,286047004.5,N
1552292615.5,286047006.6,N
1552292635.3,286047004.5,N
1552292655.2,286047004.7,N
1552292675.0,286047005.6,N
1552292675.9,286047005.6,N
1552292695.7,286047007.5,N
1552292715.6,286047004.6,N
1552292735.4,286047005.1,N
1552292755.3,286047004.6,N
1552292775.1,286047006.9,N
1552292776.0,286047006.9,N
1552292795.8,286047004.6,N
1552292815.7,286047005.8,N
1552292835.5,286047004.8,N
1552292855.3,286047005.2,N
1552292875.2,286047004.8,N
1552292895.0,286047007.3,Y
1552292895.9,286047007.3,P
1552292915.8,286047002.6,N
1552292935.6,286047000.2,N
1552292955.4,286047002.5,N
1552292975.3,286047001.8,N
1552292995.1,286047001.7,N
1552293015.9,286047004.3,N
1552293035.7,286047003.5,N
1552293055.5,286047003.1,N
1552293075.4,286047004.0,N
1552293095.2,286047003.6,N
1552293115.0,286047005.8,Y
1552293115.9,286047005.8,P
1552293135.8,286047000.0,N
1552293155.6,286047000.1,N
1552293175.5,286047000.9,N
1552293195.3,286047000.4,N
1552293215.1,286047000.3,N
1552293235.9,286047001.4,N
1552293255.7,286047003.2,N
1552293275.5,286047004.6,N
1552293295.4,286047005.1,N
1552293315.2,286047004.5,N
1552293335.0,286047004.8,N
1552293336.0,286047004.8,N
1552293355.8,286047005.2,N
1552293375.6,286047005.4,N
1552293395.5,286047003.6,N
1552293415.3,286047004.4,N
1552293435.1,286047001.4,N
1552293455.9,286047003.6,N
1552293475.7,286046999.9,N
1552293495.5,286047000.4,N
1552293515.4,286047000.1,N
1552293535.2,286046999.8,N
1552293555.1,286047000.6,N
1552293556.0,286047000.6,N
1552293575.8,286046998.4,N
1552293595.6,286046998.1,N
1552293615.5,286047000.8,N
1552293635.3,286046999.0,N
1552293655.1,286046998.7,N
1552293675.9,286046999.3,N
1552293695.7,286046998.6,N
1552293715.6,286046998.9,N
1552293735.4,286046996.6,N
1552293755.2,286046999.5,N
1552293775.1,286046997.0,N
1552293776.0,286046997.0,N
1552293795.8,286046999.2,N
1552293815.6,286046999.6,N
1552293835.5,286046999.1,N
1552293855.3,286046997.8,N
1552293875.2,286046997.0,N
1552293895.9,286046996.9,N
1552293915.7,286046997.1,N
1552293935.6,286046997.7,N
1552293955.4,286046995.2,N
1552293975.2,286046995.3,N
1552293995.1,286046998.0,N
1552293996.0,286046998.0,N
1552294015.8,286046995.4,Y
1552294035.7,286046997.0,P
1552294055.5,286046997.8,P
1552294075.3,286046997.9,P
1552294095.2,286046997.3,Y
1552294115.0,286047000.7,P
1552294115.9,286047000.7,N
1552294135.8,286047002.4,N
1552294155.6,286047002.6,N
1552294175.4,286047001.8,N
1552294195.3,286047001.6,N
1552294215.1,286047000.0,N
1552294235.9,286047000.1,N
1552294255.7,286047000.1,N
1552294275.5,286047000.1,N
1552294295.4,286047000.3,N
1552294315.2,286047001.3,N
1552294335.0,286047004.1,Y
1552294336.0,286047004.1,P
1552294355.8,286047002.2,N
1552294375.6,286047002.0,N
1552294395.5,286047001.7,N
1552294415.3,286047001.8,N
1552294435.1,286047002.3,N
1552294455.9,286047003.1,Y
1552294475.7,286047001.8,P
1552294495.6,286047001.4,P
1552294515.4,286047002.0,P
1552294535.2,286046999.7,N
1552294555.1,286047001.2,N
1552294556.0,286047001.2,N
1552294575.8,286047000.8,N
1552294595.7,286047002.0,N
1552294615.5,286047001.4,N
1552294635.3,286047002.0,N
1552294655.2,286047000.9,N
1552294675.0,286047001.0,N
1552294675.9,286047001.0,N
1552294695.7,286046999.9,N
1552294715.6,286047000.9,N
1552294735.4,286047001.2,N
1552294755.3,286047000.8,N
1552294775.1,286046996.6,Y
1552294776.0,286046996.6,P
1552294795.8,286046994.9,N
